Weather History for ESNG - January, 2014

Change the Weather History Date:

Thursday, January 23, 2014

  Actual Average Record
Temperature  
Mean Temperature -17 °F -  
Max Temperature -7 °F - - ()
Min Temperature -27 °F - - ()
Degree Days  
Heating Degree Days 82    
Moisture  
Dew Point -28 °F    
Average Humidity 72    
Maximum Humidity 76    
Minimum Humidity 55    
Precipitation  
Precipitation 0.01 in - - ()
Sea Level Pressure  
Sea Level Pressure 30.13 in    
Wind  
Wind Speed 1 mph ()    
Max Wind Speed 2 mph    
Max Gust Speed 15 mph    
Visibility 5.7 miles    
Events Snow    
T = Trace of Precipitation, MM = Missing Value Source: Averaged Metar Reports

Daily Weather History Graph

Daily Weather History Graph

Search for Another Location

Airport or City:

Trip Planner

Search our weather history database for the weather conditions in past years. The results will help you decide how hot, cold, wet, or windy it might be!

Date:

Astronomy

Jan. 23, 2014 Rise Set
Actual Time 9:19 AM CET 2:18 PM CET
Civil Twilight 8:02 AM CET 3:35 PM CET
Nautical Twilight 6:51 AM CET 4:46 PM CET
Astronomical Twilight 5:47 AM CET 5:51 PM CET
Moon No Moon Rise 9:12 AM CET (1/23)
Length of Visible Light 7h 33m
Length of Day
4h 58m
Waning Gibbous, 58% of the Moon is Illuminated
Jan 23
Waning Gibbous
Jan 24
Last Quarter
Jan 30
New
Feb 6
First Quarter
Feb 15
Full

Hourly Weather History & Observations

Time (CET) Temp. Dew Point Humidity Pressure Visibility Wind Dir Wind Speed Gust Speed Precip Events Conditions
12:20 AM -22.0 °F -29.2 °F 69% 30.12 in 6.2 mi NW 2.3 mph - N/A Snow Light Snow
12:50 AM -25.6 °F -32.8 °F 69% 30.12 in 6.2 mi NW 2.3 mph - N/A Snow Light Snow
1:00 AM -27 °F -34 °F 55% 30.27 in 31 mi Calm Calm - -   Clear
1:20 AM -25.6 °F -31.0 °F 76% 30.12 in 6.2 mi NW 2.3 mph - N/A   Unknown
1:50 AM -25.6 °F -31.0 °F 76% 30.15 in 6.2 mi NW 2.3 mph - N/A   Unknown
2:20 AM -25.6 °F -31.0 °F 76% 30.15 in 6.2 mi NW 2.3 mph - N/A Snow Light Snow
2:50 AM -25.6 °F -31.0 °F 76% 30.15 in 6.2 mi NW 2.3 mph - N/A Snow Snow Grains
3:20 AM -25.6 °F -32.8 °F 69% 30.15 in 6.2 mi NW 2.3 mph - N/A Snow Light Snow
3:50 AM -27.4 °F -32.8 °F 75% 30.12 in 6.2 mi NW 2.3 mph - N/A   Unknown
4:00 AM -25 °F -31 °F 57% 30.27 in 1 mi Calm Calm - - Snow Light Snow
4:20 AM -27.4 °F -32.8 °F 75% 30.12 in 6.2 mi NW 2.3 mph - N/A Snow Light Snow
4:50 AM -25.6 °F -32.8 °F 69% 30.12 in 5.0 mi NW 2.3 mph - N/A   Ice Crystals
5:20 AM -25.6 °F -31.0 °F 76% 30.12 in 3.1 mi NW 2.3 mph - N/A Snow Light Snow
5:50 AM -23.8 °F -31.0 °F 69% 30.12 in 5.6 mi Calm Calm - N/A   Ice Crystals
6:20 AM -23.8 °F -31.0 °F 69% 30.12 in 6.2 mi NW 2.3 mph - N/A Snow Light Snow
6:50 AM -23.8 °F -29.2 °F 76% 30.12 in 6.2 mi West 2.3 mph - N/A   Scattered Clouds
7:00 AM -18 °F -24 °F 60% 30.25 in 1 mi Calm Calm - - Snow Light Snow
7:20 AM -23.8 °F -29.2 °F 76% 30.12 in 6.2 mi West 2.3 mph - N/A   Scattered Clouds
8:20 AM -23.8 °F -29.2 °F 76% 30.12 in 6.2 mi West 2.3 mph - N/A   Scattered Clouds
8:50 AM -23.8 °F -31.0 °F 69% 30.12 in 5.6 mi NW 1.2 mph - N/A Snow Light Snow
9:20 AM -23.8 °F -29.2 °F 76% 30.12 in 6.2 mi NW 1.2 mph - N/A   Partly Cloudy
9:50 AM -22.0 °F -29.2 °F 69% 30.12 in 6.2 mi West 2.3 mph - N/A   Partly Cloudy
10:00 AM -12 °F -17 °F 67% 30.24 in 1 mi Calm Calm - - Snow Light Snow
10:20 AM -23.8 °F -31.0 °F 69% 30.12 in 6.2 mi Variable 1.2 mph - N/A   Partly Cloudy
10:50 AM -22.0 °F -27.4 °F 76% 30.15 in 6.2 mi NW 1.2 mph - N/A   Scattered Clouds
11:20 AM -22.0 °F -29.2 °F 69% 30.12 in 6.2 mi NW 1.2 mph - N/A   Scattered Clouds
11:50 AM -22.0 °F -27.4 °F 76% 30.12 in 6.2 mi West 2.3 mph - N/A   Scattered Clouds
12:20 PM -22.0 °F -27.4 °F 76% 30.12 in 6.2 mi NW 1.2 mph - N/A Snow Light Snow
12:50 PM -22.0 °F -29.2 °F 69% 30.12 in 6.2 mi Calm Calm - N/A Snow Light Snow
1:00 PM -13 °F -18 °F 65% 30.24 in - Calm Calm - -   Clear
1:20 PM -20.2 °F -25.6 °F 76% 30.12 in 6.2 mi West 2.3 mph - N/A   Unknown
1:50 PM -20.2 °F -27.4 °F 69% 30.12 in 6.2 mi Variable 1.2 mph 12.7 mph N/A Snow Light Snow
2:20 PM -22.0 °F -27.4 °F 76% 30.12 in 6.2 mi Variable 1.2 mph - N/A Snow Light Snow
2:50 PM -22.0 °F -27.4 °F 76% 30.12 in - NW 1.2 mph - N/A   Clear
3:20 PM -20.2 °F -25.6 °F 76% 30.09 in - NW 1.2 mph - N/A   Clear
3:50 PM -22.0 °F -27.4 °F 76% 30.09 in - Calm Calm - N/A   Clear
4:00 PM -7 °F -12 °F 69% 30.21 in 8 mi NE 2.2 mph - -   Clear
4:20 PM -22.0 °F -27.4 °F 76% 30.09 in - Calm Calm - N/A   Clear
4:50 PM -22.0 °F -27.4 °F 76% 30.09 in - NW 2.3 mph - N/A   Clear
5:20 PM -22.0 °F -29.2 °F 69% 30.09 in - Calm Calm - N/A   Clear
5:50 PM -22.0 °F -27.4 °F 76% 30.09 in - Calm Calm - N/A   Clear
6:20 PM -22.0 °F -27.4 °F 76% 30.09 in - NW 1.2 mph - N/A   Clear
6:50 PM -20.2 °F -27.4 °F 69% 30.09 in - Calm Calm - N/A   Clear
7:00 PM -19 °F -25 °F 62% 30.22 in 22 mi Calm Calm - -   Clear
7:20 PM -22.0 °F -29.2 °F 69% 30.09 in - NW 1.2 mph - N/A   Clear
7:50 PM -22.0 °F -27.4 °F 76% 30.09 in - NW 1.2 mph - N/A   Clear
8:20 PM -22.0 °F -27.4 °F 76% 30.09 in - NW 2.3 mph 15.0 mph N/A   Clear
8:50 PM -22.0 °F -27.4 °F 76% 30.09 in - NW 2.3 mph - N/A   Clear
9:20 PM -20.2 °F -25.6 °F 76% 30.09 in - West 2.3 mph - N/A   Clear
9:50 PM -22.0 °F -29.2 °F 69% 30.09 in - NW 2.3 mph - N/A   Clear
10:00 PM -25 °F -32 °F 55% 30.22 in 25 mi Calm Calm - -   Clear
10:20 PM -22.0 °F -27.4 °F 76% 30.09 in 6.2 mi WNW 2.3 mph - N/A   Unknown
10:50 PM -20.2 °F -25.6 °F 76% 30.09 in 6.2 mi WNW 2.3 mph - N/A   Unknown
11:20 PM -18.4 °F -23.8 °F 76% 30.09 in 6.2 mi NW 2.3 mph - N/A   Unknown
11:50 PM -20.2 °F -27.4 °F 69% 30.09 in 6.2 mi NW 2.3 mph - N/A   Unknown